Regional Weather Roundup
Issued by NWS

Home | Current Version | Previous Version | Graphics & Text | Print | Product List | Glossary On
Versions: 1 2 3 4 5 6 7 8 9 10 11 12 13 14 15 16 17 18 19 20 21 22 23 24 25 26 27 28 29 30 31 32 33 34 35 36 37 38 39 40 41 42 43 44 45 46 47 48 49 50
000
ASUS43 KOAX 040410
RWRNE

WEATHER ROUNDUP FOR NEBRASKA
NATIONAL WEATHER SERVICE OMAHA NE
1100 PM CDT THU SEP 03 2015

NOTES: SATELLITE DATA IS BEING USED TO AUGMENT CLOUD COVER ABOVE
       12000 FEET.
       "FAIR" INDICATES FEW OR NO CLOUDS BELOW 12,000 FEET WITH NO
       SIGNIFICANT WEATHER AND/OR OBSTRUCTIONS TO VISIBILITY.

  * THESE STATIONS DO NOT REPORT WEATHER SUCH AS RAIN...SNOW OR FOG.

NEZ001>004-019>022-054>056-040500-
NEBRASKA PANHANDLE

CITY           SKY/WX    TMP DP  RH WIND       PRES   REMARKS
SCOTTSBLUFF    LGT RAIN  69  60  73 CALM      29.91F
ALLIANCE       CLOUDY    73  53  49 W15       29.88R
CHADRON        MOCLDY    76  47  35 SE7       29.82S
KIMBALL        LGT RAIN  63  55  74 N6        29.96F
SIDNEY         CLOUDY    71  54  54 NW10      29.95S
$$

NEZ057>060-069>072-079>082-040500-
SOUTHWEST NEBRASKA

CITY           SKY/WX    TMP DP  RH WIND       PRES   REMARKS
NORTH PLATTE   CLOUDY    78  63  59 E8        29.78S
IMPERIAL       CLOUDY    70  62  76 NW14      29.88R
LEXINGTON      CLOUDY    84  59  43 S17       29.79S
MCCOOK         CLOUDY    85  58  39 S16G22    29.77S
OGALLALA       TSTM      71  62  72 S7        29.88R
$$

NEZ005>010-023>029-035>040-094-040500-
NORTH CENTRAL NEBRASKA

CITY           SKY/WX    TMP DP  RH WIND       PRES   REMARKS
VALENTINE      CLOUDY    76  56  49 E6        29.77F
AINSWORTH      CLOUDY    78  64  60 CALM      29.79F
BROKEN BOW     CLOUDY    79  63  57 E8        29.80R
O`NEILL        MOCLDY    80  68  68 SE9       29.78F
ORD            CLOUDY    80  63  55 SE10      29.77S
THEDFORD       MOCLDY    75  58  55 CALM      29.80F
$$

NEZ041-046>049-061>064-073>077-083>087-040500-
SOUTH CENTRAL NEBRASKA

CITY           SKY/WX    TMP DP  RH WIND       PRES   REMARKS
GRAND ISLAND   MOCLDY    79  64  60 S13       29.81S
AURORA         MOCLDY    78  65  64 S12G17    29.82S
HASTINGS       MOCLDY    81  63  54 S10       29.82S
HEBRON         MOCLDY    80  62  54 S10G17    29.84S
HOLDREGE       CLOUDY    80  58  48 SE9       29.81S
KEARNEY *      FAIR      77  61  57 SE12      29.81S
YORK           MOCLDY    77  66  69 S12G18    29.83S
$$

NEZ011>018-030>034-042>045-040500-
NORTHEAST NEBRASKA

CITY           SKY/WX    TMP DP  RH WIND       PRES   REMARKS
NORFOLK        PTCLDY    80  67  64 SE16      29.80S
ALBION         PTCLDY    76  66  72 SE7       29.81S
BLAIR          CLEAR     79  66  64 S14       29.85S
COLUMBUS *     PTCLDY    79  64  61 S8        29.81F
FREMONT        PTCLDY    80  68  67 SE10      29.84S
TEKAMAH        PTCLDY    76  72  87 SE9       29.82S
WAYNE          MOCLDY    76  72  85 S9        29.81F
$$

NEZ050>053-065>068-078-088>093-040500-
SOUTHEAST NEBRASKA

CITY           SKY/WX    TMP DP  RH WIND       PRES   REMARKS
LINCOLN        PTCLDY    81  67  62 S13       29.84R
OMAHA EPPLEY   MOCLDY    81  69  67 S14       29.84S
BEATRICE       MOCLDY    79  67  67 S10       29.86R
FALLS CITY     CLEAR     77  67  71 S8        29.87S
NEBRASKA CITY  CLEAR     75  65  71 S9        29.87S
PLATTSMOUTH    CLEAR     76  67  73 SE8       29.86S
$$

NEZ044-045-051>053-067-040500-
OMAHA AREA

CITY           SKY/WX    TMP DP  RH WIND       PRES   REMARKS
OMAHA EPPLEY   MOCLDY    81  69  67 S14       29.84S
BLAIR          CLEAR     79  66  64 S14       29.85S
FREMONT        PTCLDY    80  68  67 SE10      29.84S
MILLARD        PTCLDY    78  70  77 SE6       29.85S
OFFUTT AFB     CLEAR     78  69  75 SE10      29.85R
PLATTSMOUTH    CLEAR     76  67  73 SE8       29.86S
WAHOO          FAIR      76  69  79 SE7       29.84R
$$




USA.gov is the U.S. government's official web portal to all federal, state and local government web resources and services.